Regional Weather Roundup
Issued by NWS

Home | Current Version | Previous Version | Graphics & Text | Print | Product List | Glossary On
Versions: 1 2 3 4 5 6 7 8 9 10 11 12 13 14 15 16 17 18 19 20 21 22 23 24 25 26 27 28 29 30 31 32 33 34 35 36 37 38 39 40 41 42 43 44 45 46 47 48 49 50
000
ASUS45 KBOU 042307
RWRCO

WEATHER ROUNDUP FOR COLORADO
NATIONAL WEATHER SERVICE DENVER/BOULDER CO
500 PM MDT WED MAY 04 2016

NOTE: "FAIR" INDICATES FEW OR NO CLOUDS BELOW 12000 FEET WITH NO
SIGNIFICANT WEATHER AND/OR OBSTRUCTIONS TO VISIBILITY.

COZ001>005-013-030-031-050000-
...NORTHWEST COLORADO...

CITY           SKY/WX    TMP DP  RH WIND       PRES   REMARKS
CRAIG          FAIR      73  28  18 W12       30.15F
HAYDEN         FAIR      72  25  17 N6        30.18S
MEEKER         FAIR      74  19  12 S7        30.16F
MOUNT WERNER   NOT AVBL
STEAMBOAT SPGS FAIR      70  25  18 CALM      30.20S
WALDEN         FAIR      63  12  14 S10       30.29S
$$

COZ006>008-011-050000-
...WEST CENTRAL VALLEYS...

CITY           SKY/WX    TMP DP  RH WIND       PRES   REMARKS
GRAND JUNCTION FAIR      76  28  17 NW7       30.08F
MONTROSE       FAIR      77  26  15 NW9       30.15F
EAGLE          SUNNY     73  18  12 NW13      30.18F
RIFLE          FAIR      78  27  15 W13G20    30.11F
DELTA          NOT AVBL
NUCLA          NOT AVBL
$$

COZ017>023-064>068-050000-
...SOUTHWEST COLORADO...

CITY           SKY/WX    TMP DP  RH WIND       PRES   REMARKS
DURANGO        FAIR      70  27  20 NE9       30.23F
CORTEZ         FAIR      75  24  15 SE5       30.18F
PAGOSA SPRINGS FAIR      67  14  12 SW12      30.29F
TELLURIDE      PTSUNNY   62  22  21 E6        30.36S
WOLF CREEK PAS FAIR      43  19  39 SW9G22    30.54F
$$

COZ009-010-012-014-032>034-037-058>063-050000-
...CENTRAL COLORADO...

CITY           SKY/WX    TMP DP  RH WIND       PRES   REMARKS
ASPEN          FAIR      68  19  15 VRB6      30.24F
BUENA VISTA    FAIR      66  13  12 E5        30.25S
COPPER MTN     NOT AVBL
BERTHOUD PASS  PTSUNNY   39  32  75 NW6       30.53S
COTTONWOOD PAS PTSUNNY   64   9  11 CALM      30.37S
GUNNISON       FAIR      68  19  15 S7G16     30.26F
KREMMLING      FAIR      66  14  13 N5        30.22F
LEADVILLE      FAIR      57   9  14 S8        30.36S
MONARCH PASS   FAIR      46  12  25 S15G21    30.60F
SALIDA         FAIR      73  15  10 SW12G23   30.29F
SUNLIGHT       FAIR      55  27  33 CALM      30.46F
WILKERSON PASS CLOUDY    46  19  34 NE5       30.49F
$$

COZ069>075-050000-
...SAN LUIS VALLEY/SANGRE DE CRISTO MOUNTAINS...

CITY           SKY/WX    TMP DP  RH WIND       PRES   REMARKS
ALAMOSA        FAIR      68  17  14 CALM      30.25F
LA VETA PASS   FAIR      59  14  17 S3        30.43F
SAGUACHE       CLOUDY    64  23  20 CALM      30.28F
$$

COZ035-036-038>040-050000-
...NORTHERN COLORADO FRONT RANGE...

CITY           SKY/WX    TMP DP  RH WIND       PRES   REMARKS
DENVER INTL AP FAIR      73  30  20 E10       30.15F
DMNS CITY PARK   N/A     73  27  18 E6G18     30.13F
AURORA         FAIR      73  31  21 VRB6      30.17F
FRONT RANGE AP MOSUNNY   72  30  21 CALM      30.18
ERIE MUNI ARPT FAIR      74  27  17 E3        30.14S
BOULDER MUN AP FAIR      73  32  21 E3        30.14F
CENTENNIAL     FAIR      73  27  18 NE7       30.17F
BROOMFIELD     MOSUNNY   73  32  21 NE7       30.17F
FORT COLLINS   FAIR      73  37  27 SE6       30.12S
LONGMONT       FAIR      76  31  18 CALM      30.15S
$$

COZ041-046-047-076>085-087-088-050000-
...PIKES PEAK/PALMER DIVIDE AND SOUTHERN FOOTHILLS...

CITY           SKY/WX    TMP DP  RH WIND       PRES   REMARKS
COLO. SPRINGS  FAIR      71  24  17 S12       30.20F
A. F. ACADEMY  FAIR      70  25  18 SE13      30.20S
SCHRIEVER AFB  NOT AVBL
ELLICOTT       FAIR     N/A N/A N/A VRB6      30.19F
FALCON         NOT AVBL
FORT CARSON    FAIR      72  28  19 SE12      30.17F
LIMON          FAIR      71  33  24 E5        30.17F
MONUMENT HILL  FAIR      64  28  25 E3        30.25S
TRINIDAD       FAIR      74  25  16 E12       30.17F
$$

COZ042>045-048>051-090-091-050000-
...NORTHEAST COLORADO...

CITY           SKY/WX    TMP DP  RH WIND       PRES   REMARKS
GREELEY ARPT   FAIR      73  34  23 SE6       30.13S
AKRON          FAIR      72  35  25 VRB5      30.14F
BURLINGTON     FAIR      75  34  22 E5        30.14S
WRAY           NOT AVBL
STERLING       FAIR      75  41  29 SE6       30.10S
HOLYOKE        NOT AVBL
FORT MORGAN    FAIR      75  32  21 E5        30.13F
$$

COZ086-089-092>099-050000-
...SOUTHEAST COLORADO...

CITY           SKY/WX    TMP DP  RH WIND       PRES   REMARKS
PUEBLO         FAIR      79  29  16 E9        30.11F
LA JUNTA       FAIR      78  31  17 VRB5      30.12F
LAMAR          FAIR      79  38  22 N5        30.09F
SPRINGFIELD      N/A     74  35  24 E9        30.14S
$$



USA.gov is the U.S. government's official web portal to all federal, state and local government web resources and services.